This demonstration page uses our WeatherBlox Daily Observations layout. Learn more.

Left ArrowRight Arrow

39.12711, -84.51439

Hourly Observations for June 26, 2016

Temp ( °F °C ) Dew Point ( °F °C ) Humidity (%) Winds ( mph kmh ) Pressure ( in mb ) Visibility ( mi km ) Precip ( " mm )
12:53 am 00:53 Clear with Mist and Fog 69 20.6 68 20 96 96 N N/A 30.10 1019 6 10 N/A
1:53 am 01:53 Clear with Mist and Fog 67 19.4 67 19.4 100 100 N N/A 30.10 1019 5 8 N/A
2:53 am 02:53 Clear with Mist and Fog 68 20 68 20 100 100 N N/A 30.09 1019 5 8 N/A
3:15 am 03:15 Clear with Mist and Fog 67 19.4 67 19.4 100 100 N N/A 30.09 1019 3 4 N/A
3:22 am 03:22 Clear with Mist and Fog 68 20 68 20 100 100 N N/A 30.09 1019 3 5 N/A
3:53 am 03:53 Clear with Mist and Fog 67 19.4 67 19.4 100 100 N N/A 30.10 1019 5 8 N/A
4:23 am 04:23 Clear with Mist and Fog 67 19.4 67 19.4 100 100 N N/A 30.09 1019 2 3 N/A
4:30 am 04:30 Clear with Mist and Fog 67 19.4 67 19.4 100 100 N N/A 30.09 1019 2 2 N/A
4:42 am 04:42 Clear with Mist and Fog 66 19 66 19 100 100 N N/A 30.09 1019 3 4 N/A
4:53 am 04:53 Clear with Mist and Fog 67 19.4 67 19.4 100 100 N N/A 30.10 1019 3 5 N/A
5:09 am 05:09 Clear with Mist and Fog 67 19.4 67 19.4 100 100 N N/A 30.09 1019 3 5 N/A
5:18 am 05:18 Clear with Mist and Fog 66 19 66 19 100 100 N N/A 30.09 1019 2 2 N/A
5:26 am 05:26 Clear with Fog 66 19 66 19 100 100 N N/A 30.06 1018 1 1 N/A
5:43 am 05:43 Clear with Mist and Fog 66 18.9 66 18.9 100 100 N N/A 30.06 1018 1 2 N/A
5:53 am 05:53 Clear with Fog 66 18.9 66 18.9 100 100 N N/A 30.09 1019 1 1 N/A
6:06 am 06:06 Clear with Mist and Fog 66 19 66 19 100 100 N N/A 30.09 1019 2 3 N/A
6:19 am 06:19 Sunny with Mist and Fog 66 18.9 66 18.9 100 100 N N/A 30.09 1019 1 1 N/A
6:26 am 06:26 Sunny with Mist and Fog 66 19 66 19 100 100 N N/A 30.09 1019 2 2 N/A
6:49 am 06:49 Sunny with Mist and Fog 66 19 66 19 100 100 N N/A 30.09 1019 5 8 N/A
6:53 am 06:53 Sunny with Patchy Fog 67 19.4 67 19.4 100 100 N N/A 30.09 1019 5 8 N/A
7:53 am 07:53 Sunny with Mist and Fog 71 21.7 71 21.7 100 100 N N/A 30.10 1019 4 6 N/A
8:53 am 08:53 Sunny 76 24.4 71 21.7 85 85 N N/A 30.11 1020 9 14 N/A
9:53 am 09:53 Sunny 81 27.2 71 21.7 72 72 S 6 9 30.11 1020 10 16 N/A
10:53 am 10:53 Sunny 84 28.9 72 22.2 67 67 S 7 11 30.11 1020 10 16 N/A
11:53 am 11:53 Sunny 87 30.6 71 21.7 59 59 VRB 7 11 30.10 1019 10 16 N/A
12:53 pm 12:53 Sunny 89 31.7 73 22.8 59 59 SSW 10 17 30.08 1019 10 16 N/A
1:53 pm 13:53 Partly Cloudy 90 32.2 73 22.8 58 58 S 13 20 30.06 1018 10 16 N/A
2:53 pm 14:53 Mostly Cloudy 90 32.2 74 23.3 59 59 S 9 15 30.04 1017 10 16 N/A
3:53 pm 15:53 Partly Cloudy 83 28.3 76 24.4 79 79 S 3 6 30.04 1017 10 16 0.01 0.25
4:53 pm 16:53 Sunny 88 31.1 75 23.9 66 66 SSW 6 9 30.02 1017 10 16 N/A
5:53 pm 17:53 Sunny 90 32.2 76 24.4 63 63 SSE 9 15 29.98 1015 10 16 N/A
6:53 pm 18:53 Sunny 89 31.7 73 22.8 59 59 SSW 9 15 29.96 1015 10 16 N/A
7:53 pm 19:53 Mostly Sunny 86 30 74 23.3 67 67 SSW 7 11 29.98 1015 10 16 N/A
8:53 pm 20:53 Sunny 81 27.2 73 22.8 77 77 S 7 11 29.99 1016 10 16 N/A
9:53 pm 21:53 Clear 79 26.1 73 22.8 82 82 SW 3 6 30.02 1017 10 16 N/A
10:53 pm 22:53 Clear 78 25.6 74 23.3 87 87 S 3 6 30.03 1017 10 16 N/A
11:53 pm 23:53 Clear 76 24.4 75 23.9 97 97 N N/A 30.01 1016 9 14 N/A

Powered by AerisWeather